SCP
0 0 0 1 1 2 2 3 2 2 2 1 2 1 1 1 1 1 1 1 2 1 1 2 2 2 1 0 0 0 0 0 0 0 0 0 0 0 0 0 0 0 0
0 0 0 0 0 0 0 0 1 1 1 1 1 1 1 1 1 1 1 1 1 1 1 1 1 1 1 1 0 0 0 0 0 0 0 0 0 0 0 0 0 0 0
0 0 0 0 0 0 0 0 0 0 0 1 1 1 1 1 1 1 1 1 1 1 1 1 1 1 1 1 0 0 0 0 0 0 0 0 0 0 0 0 0 0 0
0 0 0 0 0 0 0 0 0 0 0 0 0 0 0 0 0 0 1 1 1 0 0 1 1 0 0 0 0 0 0 0 0 0 0 0 0 0 0 0 0 0 0
0 0 0 0 0 0 0 0 0 0 0 0 0 0 0 0 0 0 0 0 0 0 0 1 1 0 0 0 0 0 0 0 0 0 0 0 0 0 0 0 0 0 0
0 0 0 0 0 0 0 0 0 0 0 0 0 0 0 0 0 0 0 0 0 0 0 0 0 0 0 0 0 0 0 0 0 0 0 0 0 0 0 0 0 0 0
0 0 0 0 0 0 0 0 0 0 0 0 0 0 0 0 0 0 0 0 0 0 0 0 0 0 0 0 0 0 0 0 0 0 0 0 0 0 0 0 0 0 0
0 0 0 0 0 0 0 0 0 0 0 0 0 0 0 0 0 0 0 0 0 0 0 0 0 0 0 0 0 0 0 0 0 0 0 0 0 0 0 0 0 0 0
0 0 0 0 0 0 0 0 0 0 0 0 0 0 0 0 0 0 0 0 0 0 0 0 0 0 0 0 0 0 0 0 0 0 0 0 0 0 0 0 0 0 0
0 0 0 0 0 0 0 0 0 0 0 0 0 0 0 0 0 0 0 0 0 0 0 0 0 0 0 0 0 0 0 0 0 0 0 0 0 0 0 0 0 0 0
0 0 0 0 0 0 0 0 0 0 0 0 0 -0 0 0 0 0 0 0 0 0 0 0 0 0 0 0 0 0 0 0 0 0 0 0 0 0 0 0 0 0 0
0 0 0 0 0 0 0 0 0 0 0 0 0 0 0 0 0 0 0 0 0 0 0 0 0 0 0 0 0 0 0 0 0 0 0 0 0 0 0 0 0 0 0
0 0 0 0 0 0 0 0 0 0 0 0 0 0 0 0 0 0 0 0 0 0 0 0 0 0 0 0 0 0 0 0 0 0 0 0 0 0 0 0 0 0 0
0 0 0 0 0 0 0 0 0 0 0 0 0 0 0 0 0 0 0 0 0 0 0 0 0 0 0 0 0 0 0 0 0 0 0 0 0 0 0 0 0 0 0
0 0 0 0 0 0 0 0 0 0 0 0 0 0 0 0 0 0 0 0 0 0 0 0 0 0 0 0 0 0 0 0 0 0 0 0 0 0 0 0 0 0 0
0 0 0 0 0 0 0 0 0 0 0 0 0 0 0 0 0 0 0 0 0 0 0 0 0 0 0 0 0 0 0 0 0 0 0 0 0 0 0 0 0 0 0
0 0 0 0 0 0 0 0 0 0 0 0 0 0 0 0 0 0 0 0 0 0 0 0 0 0 0 0 0 0 0 0 0 0 0 0 0 0 0 0 0 0 0
0 0 0 0 0 0 0 0 0 0 0 0 0 0 0 0 0 0 0 0 0 0 0 0 0 0 0 0 0 0 0 0 0 0 0 0 0 0 0 0 0 0 0
0 0 0 0 0 0 0 0 0 0 0 0 0 0 0 0 0 0 0 0 0 0 0 0 0 0 0 0 0 0 0 0 0 0 0 0 0 0 0 0 0 0 0
0 0 0 0 0 0 0 0 0 0 0 0 0 0 0 0 0 0 0 0 0 0 0 0 0 0 0 0 0 0 0 0 0 0 0 0 0 0 0 0 0 0 0
0 0 0 0 0 0 0 0 0 0 0 0 0 0 0 0 0 0 0 0 0 0 0 0 0 0 0 0 0 0 0 0 0 0 0 0 0 0 0 0 0 0 0
0 0 0 0 0 0 0 0 0 0 0 0 0 0 0 0 0 0 0 0 0 0 0 0 0 0 0 0 0 0 0 0 0 0 0 0 0 0 0 0 0 0 0
0 0 0 0 0 0 0 0 0 0 0 0 0 0 0 0 0 0 0 0 0 0 0 0 0 0 0 0 0 0 0 0 0 0 0 0 0 0 0 0 0 0 0
0 0 0 0 0 0 0 0 0 0 0 0 0 0 0 0 0 0 0 0 0 0 0 0 0 0 0 0 0 0 0 0 0 0 0 0 0 0 0 0 0 0 0
0 0 0 0 0 0 0 0 0 0 0 0 0 0 0 0 0 0 0 0 0 0 0 0 0 0 0 0 0 0 0 0 0 0 0 0 0 0 0 0 0 0 0
0 0 0 0 0 0 0 0 0 0 0 0 0 0 0 0 0 0 0 0 0 0 0 0 0 0 0 0 0 0 0 0 0 0 0 0 0 0 0 0 0 0 0
Wind_Speed_500mb
22 16 11 18 19 20 20 13 18 27 28 28 27 29 32 31 38 48 42 38 46 42 46 55 46 47 51 59 61 61 56 55 52 48 47 50 50 49 53 52 59 54 49
30 20 14 18 24 26 26 23 22 15 5 10 9 15 10 10 17 25 31 39 47 48 51 53 55 57 55 56 64 67 66 66 61 63 55 42 49 59 61 57 60 61 52
43 30 21 20 25 28 30 27 27 32 29 26 12 14 14 8 5 15 13 10 14 27 39 47 51 56 58 62 64 78 76 77 72 74 59 33 38 57 68 75 68 64 65
46 36 30 24 25 27 28 25 23 23 34 36 27 20 11 8 8 6 5 11 16 25 30 32 37 41 46 53 52 61 89 81 75 76 87 72 39 37 31 70 78 74 71
49 43 36 30 26 22 26 27 17 18 20 17 17 13 10 10 13 18 25 33 29 33 40 40 38 44 48 48 49 54 68 91 92 77 77 95 80 47 43 43 77 82 75
52 44 38 33 23 19 18 19 18 6 4 4 4 5 9 15 20 22 24 24 20 25 35 36 40 39 44 50 52 54 60 82 94 96 91 84 89 95 70 60 74 92 82
52 49 41 32 26 19 13 15 11 9 2 7 13 16 18 20 21 20 20 24 28 22 20 29 39 42 43 46 48 52 58 62 77 98 105 105 90 97 93 78 65 77 79
52 46 41 34 24 17 14 11 7 3 4 7 12 16 20 24 25 25 27 36 43 42 41 46 42 42 45 44 49 56 56 58 66 73 91 114 120 98 94 85 76 55 68
51 44 38 29 23 19 13 12 6 3 6 13 20 29 30 27 26 28 32 37 35 37 35 39 45 45 45 47 49 52 61 64 65 70 71 82 107 122 111 105 97 89 67
49 43 36 32 25 19 14 12 10 11 11 16 22 24 28 33 35 33 33 35 37 35 44 51 50 51 50 52 50 53 55 61 72 77 79 79 81 94 103 117 114 104 96
46 40 35 28 22 17 13 11 11 13 17 19 21 23 24 29 35 38 32 32 32 43 52 54 49 48 49 52 59 65 68 67 69 73 76 85 82 80 89 95 118 109 103
41 39 33 24 21 18 15 12 13 15 16 20 21 24 28 30 36 35 30 33 44 47 36 43 47 49 51 56 61 66 69 70 72 76 75 80 78 79 81 86 104 100 118
42 33 29 27 22 18 15 14 15 15 17 19 25 28 30 32 33 34 42 48 54 50 38 40 46 49 53 55 57 58 60 62 64 67 73 81 79 79 75 73 83 98 97
38 36 32 30 23 18 14 14 14 16 18 22 27 30 31 35 40 45 48 54 55 40 39 41 43 45 45 44 43 42 42 44 48 52 57 63 65 74 79 77 79 83 74
43 37 31 27 22 15 13 9 11 16 20 24 28 30 38 42 47 50 57 43 35 35 38 38 38 34 32 29 29 38 40 43 43 42 45 49 51 53 63 78 90 87 80
41 35 27 20 18 14 9 10 15 18 22 27 28 39 45 49 50 40 27 25 27 31 32 32 28 24 23 23 27 31 32 29 26 29 28 29 26 22 24 33 49 58 65
37 28 25 21 17 12 6 8 14 17 20 33 40 39 32 27 22 20 21 22 25 24 26 22 18 17 18 23 24 23 21 20 20 21 22 17 12 11 11 17 24 26 29
30 27 25 22 16 12 9 8 13 22 26 30 35 28 24 24 26 21 20 20 22 23 22 16 14 13 17 19 19 16 15 14 15 17 16 15 13 10 2 8 16 21 19
31 30 29 24 18 15 14 7 10 16 22 32 27 27 23 24 25 22 17 20 20 18 14 13 11 15 17 15 13 12 11 11 12 12 11 10 11 11 9 11 21 29 36
31 26 25 23 20 19 24 13 10 17 23 26 32 20 19 18 24 29 19 21 19 13 11 13 18 15 11 10 6 10 10 7 7 8 10 12 14 16 16 17 24 36 42
32 30 27 26 26 25 23 10 13 17 21 29 26 27 28 26 29 25 24 24 20 18 16 19 21 16 9 8 7 5 7 3 4 7 7 9 10 12 21 25 24 31 37
25 25 27 28 28 25 19 15 17 17 20 37 30 26 34 31 33 30 28 25 23 21 22 21 19 19 15 8 5 3 3 2 1 7 10 13 17 20 19 22 26 22 24
24 25 26 24 24 22 18 21 23 24 22 36 33 31 29 33 33 33 34 28 26 24 24 23 21 20 20 11 9 8 6 5 7 11 12 16 17 16 17 21 24 23 26
26 26 26 27 24 20 22 24 22 23 23 38 38 30 26 28 30 34 35 32 29 26 29 26 25 21 20 18 14 13 13 11 15 18 17 17 19 20 25 23 23 26 25
23 24 26 26 25 27 27 26 24 24 29 34 40 35 27 27 33 34 35 33 30 28 29 28 27 25 24 19 12 13 16 15 16 21 22 22 24 28 28 23 26 30 30
26 27 26 25 28 27 27 27 25 28 25 38 38 39 36 30 34 38 37 34 32 31 29 27 26 22 18 18 13 16 16 18 23 23 21 23 23 25 22 20 27 29 23
Wind_Direction_500mb
149 147 139 133 131 156 175 170 216 221 230 237 229 242 247 244 235 236 241 246 245 243 247 246 243 243 254 248 231 238 240 236 221 223 224 228 222 217 229 228 241 244 241
152 153 144 130 123 123 125 125 130 139 176 217 178 215 225 243 256 254 257 254 253 254 254 250 251 257 257 251 247 234 240 235 227 221 218 212 224 225 223 217 234 242 239
162 160 155 142 130 128 127 129 131 143 139 145 154 124 92 90 47 26 357 330 309 262 251 253 258 265 264 259 260 239 235 240 233 219 212 209 226 220 223 217 220 231 234
163 166 164 155 148 136 129 122 112 120 135 121 138 140 131 139 123 81 336 311 293 283 285 275 263 262 262 262 264 264 237 235 229 224 223 230 241 207 213 226 219 223 229
163 167 170 167 155 146 148 130 127 133 140 148 153 169 177 210 242 240 252 272 284 279 273 273 271 270 270 267 272 265 263 240 235 230 231 229 228 228 230 210 215 215 228
161 168 171 168 170 160 153 142 125 104 37 34 15 344 321 316 309 299 290 296 303 285 285 282 272 275 272 271 272 268 272 259 247 242 234 236 231 231 236 226 218 215 215
166 166 171 174 168 167 169 124 147 156 231 318 331 333 324 316 320 319 303 282 269 266 286 288 284 278 272 274 269 266 262 263 259 244 242 238 240 236 235 237 226 213 210
161 172 178 181 184 183 180 179 169 119 277 309 294 298 302 303 291 283 275 277 283 283 271 264 263 272 278 279 279 281 276 270 271 265 259 247 243 241 237 238 233 216 205
165 177 176 181 184 186 201 225 244 267 269 287 305 307 306 301 294 290 287 288 285 283 283 273 278 280 280 274 270 273 278 282 277 274 274 272 261 249 243 236 231 224 204
171 181 180 186 190 198 204 249 300 317 300 273 276 284 283 291 298 296 286 277 285 281 272 278 281 286 288 290 289 284 281 274 273 276 277 273 270 263 254 246 237 228 220
174 179 185 189 195 206 208 229 248 258 268 281 292 286 276 286 293 297 292 274 272 267 277 284 288 293 296 297 298 298 297 289 283 275 274 272 272 268 266 258 246 234 221
175 188 187 190 201 208 220 235 246 254 264 267 276 287 297 301 295 291 292 267 264 273 285 292 297 297 300 300 299 298 295 291 288 286 281 275 273 272 265 267 261 248 232
185 181 190 195 206 218 225 244 261 268 279 296 300 303 301 294 288 276 269 266 273 285 284 284 290 295 296 300 302 302 299 295 289 283 277 273 273 274 269 262 263 254 235
186 190 196 193 210 217 230 249 265 288 295 303 302 300 297 281 270 271 272 275 282 281 283 289 290 292 296 301 304 307 314 314 306 298 291 285 277 267 267 266 260 249 234
193 196 197 199 200 221 231 264 293 300 305 292 300 301 282 277 274 274 277 277 280 285 292 290 290 292 297 302 312 322 327 321 322 323 318 311 300 288 268 258 251 245 231
196 200 197 195 199 216 242 283 308 304 290 286 280 274 276 276 276 277 278 279 279 285 288 287 287 291 301 313 332 335 337 331 336 339 336 314 289 260 236 233 229 225 222
202 191 190 202 196 209 240 274 295 303 280 277 286 293 289 287 280 278 270 273 278 274 277 277 277 294 318 329 333 340 348 352 358 1 359 342 350 329 273 230 202 215 208
191 181 192 202 213 219 240 276 299 293 289 288 299 298 300 299 286 269 271 265 271 273 277 275 294 324 327 331 335 351 4 9 19 26 28 37 54 56 98 171 158 146 136
186 191 200 208 209 229 242 238 302 310 297 306 308 310 277 276 261 266 267 262 273 276 278 283 310 320 332 332 337 349 357 359 9 24 45 52 73 79 110 136 130 124 118
178 191 205 210 217 237 238 225 287 302 301 300 294 295 289 276 271 285 266 268 272 270 271 282 289 299 320 315 336 332 339 1 30 57 72 66 70 88 95 111 130 129 118
189 199 207 221 225 250 217 231 276 296 298 302 301 271 274 278 282 275 249 256 267 267 260 267 277 276 278 282 285 277 302 334 112 113 95 86 73 77 95 100 114 122 121
201 215 225 234 244 249 249 231 260 279 286 299 308 280 272 266 268 263 245 248 263 270 264 264 270 276 282 254 291 275 234 215 170 127 134 109 94 85 80 91 103 104 112
220 228 233 241 247 250 250 260 254 261 268 291 298 286 265 267 256 250 241 237 254 261 261 258 262 273 269 265 229 227 219 216 170 145 134 126 128 124 120 119 122 128 136
225 234 240 246 245 249 260 265 277 269 271 293 295 294 274 262 254 242 233 245 251 255 258 253 257 262 270 257 232 227 231 201 167 163 156 150 147 146 144 143 133 128 127
236 240 245 248 254 255 259 266 268 281 269 277 286 293 276 263 256 246 243 245 252 257 258 256 255 262 250 253 244 230 220 199 176 163 153 155 156 154 157 151 146 147 154
237 243 245 250 255 255 258 259 256 262 273 269 273 277 284 254 254 248 245 246 248 252 257 255 256 260 259 246 235 224 206 188 175 170 165 160 162 167 169 160 152 158 157
Wind_Speed_850mb
22 16 11 18 19 20 20 13 18 27 28 28 27 29 32 31 38 48 42 38 46 42 46 55 46 47 51 59 61 61 56 55 52 48 47 50 50 49 53 52 59 54 49
30 20 14 18 24 26 26 23 22 15 5 10 9 15 10 10 17 25 31 39 47 48 51 53 55 57 55 56 64 67 66 66 61 63 55 42 49 59 61 57 60 61 52
43 30 21 20 25 28 30 27 27 32 29 26 12 14 14 8 5 15 13 10 14 27 39 47 51 56 58 62 64 78 76 77 72 74 59 33 38 57 68 75 68 64 65
46 36 30 24 25 27 28 25 23 23 34 36 27 20 11 8 8 6 5 11 16 25 30 32 37 41 46 53 52 61 89 81 75 76 87 72 39 37 31 70 78 74 71
49 43 36 30 26 22 26 27 17 18 20 17 17 13 10 10 13 18 25 33 29 33 40 40 38 44 48 48 49 54 68 91 92 77 77 95 80 47 43 43 77 82 75
52 44 38 33 23 19 18 19 18 6 4 4 4 5 9 15 20 22 24 24 20 25 35 36 40 39 44 50 52 54 60 82 94 96 91 84 89 95 70 60 74 92 82
52 49 41 32 26 19 13 15 11 9 2 7 13 16 18 20 21 20 20 24 28 22 20 29 39 42 43 46 48 52 58 62 77 98 105 105 90 97 93 78 65 77 79
52 46 41 34 24 17 14 11 7 3 4 7 12 16 20 24 25 25 27 36 43 42 41 46 42 42 45 44 49 56 56 58 66 73 91 114 120 98 94 85 76 55 68
51 44 38 29 23 19 13 12 6 3 6 13 20 29 30 27 26 28 32 37 35 37 35 39 45 45 45 47 49 52 61 64 65 70 71 82 107 122 111 105 97 89 67
49 43 36 32 25 19 14 12 10 11 11 16 22 24 28 33 35 33 33 35 37 35 44 51 50 51 50 52 50 53 55 61 72 77 79 79 81 94 103 117 114 104 96
46 40 35 28 22 17 13 11 11 13 17 19 21 23 24 29 35 38 32 32 32 43 52 54 49 48 49 52 59 65 68 67 69 73 76 85 82 80 89 95 118 109 103
41 39 33 24 21 18 15 12 13 15 16 20 21 24 28 30 36 35 30 33 44 47 36 43 47 49 51 56 61 66 69 70 72 76 75 80 78 79 81 86 104 100 118
42 33 29 27 22 18 15 14 15 15 17 19 25 28 30 32 33 34 42 48 54 50 38 40 46 49 53 55 57 58 60 62 64 67 73 81 79 79 75 73 83 98 97
38 36 32 30 23 18 14 14 14 16 18 22 27 30 31 35 40 45 48 54 55 40 39 41 43 45 45 44 43 42 42 44 48 52 57 63 65 74 79 77 79 83 74
43 37 31 27 22 15 13 9 11 16 20 24 28 30 38 42 47 50 57 43 35 35 38 38 38 34 32 29 29 38 40 43 43 42 45 49 51 53 63 78 90 87 80
41 35 27 20 18 14 9 10 15 18 22 27 28 39 45 49 50 40 27 25 27 31 32 32 28 24 23 23 27 31 32 29 26 29 28 29 26 22 24 33 49 58 65
37 28 25 21 17 12 6 8 14 17 20 33 40 39 32 27 22 20 21 22 25 24 26 22 18 17 18 23 24 23 21 20 20 21 22 17 12 11 11 17 24 26 29
30 27 25 22 16 12 9 8 13 22 26 30 35 28 24 24 26 21 20 20 22 23 22 16 14 13 17 19 19 16 15 14 15 17 16 15 13 10 2 8 16 21 19
31 30 29 24 18 15 14 7 10 16 22 32 27 27 23 24 25 22 17 20 20 18 14 13 11 15 17 15 13 12 11 11 12 12 11 10 11 11 9 11 21 29 36
31 26 25 23 20 19 24 13 10 17 23 26 32 20 19 18 24 29 19 21 19 13 11 13 18 15 11 10 6 10 10 7 7 8 10 12 14 16 16 17 24 36 42
32 30 27 26 26 25 23 10 13 17 21 29 26 27 28 26 29 25 24 24 20 18 16 19 21 16 9 8 7 5 7 3 4 7 7 9 10 12 21 25 24 31 37
25 25 27 28 28 25 19 15 17 17 20 37 30 26 34 31 33 30 28 25 23 21 22 21 19 19 15 8 5 3 3 2 1 7 10 13 17 20 19 22 26 22 24
24 25 26 24 24 22 18 21 23 24 22 36 33 31 29 33 33 33 34 28 26 24 24 23 21 20 20 11 9 8 6 5 7 11 12 16 17 16 17 21 24 23 26
26 26 26 27 24 20 22 24 22 23 23 38 38 30 26 28 30 34 35 32 29 26 29 26 25 21 20 18 14 13 13 11 15 18 17 17 19 20 25 23 23 26 25
23 24 26 26 25 27 27 26 24 24 29 34 40 35 27 27 33 34 35 33 30 28 29 28 27 25 24 19 12 13 16 15 16 21 22 22 24 28 28 23 26 30 30
26 27 26 25 28 27 27 27 25 28 25 38 38 39 36 30 34 38 37 34 32 31 29 27 26 22 18 18 13 16 16 18 23 23 21 23 23 25 22 20 27 29 23
Wind_Direction_850mb
149 147 139 133 131 156 175 170 216 221 230 237 229 242 247 244 235 236 241 246 245 243 247 246 243 243 254 248 231 238 240 236 221 223 224 228 222 217 229 228 241 244 241
152 153 144 130 123 123 125 125 130 139 176 217 178 215 225 243 256 254 257 254 253 254 254 250 251 257 257 251 247 234 240 235 227 221 218 212 224 225 223 217 234 242 239
162 160 155 142 130 128 127 129 131 143 139 145 154 124 92 90 47 26 357 330 309 262 251 253 258 265 264 259 260 239 235 240 233 219 212 209 226 220 223 217 220 231 234
163 166 164 155 148 136 129 122 112 120 135 121 138 140 131 139 123 81 336 311 293 283 285 275 263 262 262 262 264 264 237 235 229 224 223 230 241 207 213 226 219 223 229
163 167 170 167 155 146 148 130 127 133 140 148 153 169 177 210 242 240 252 272 284 279 273 273 271 270 270 267 272 265 263 240 235 230 231 229 228 228 230 210 215 215 228
161 168 171 168 170 160 153 142 125 104 37 34 15 344 321 316 309 299 290 296 303 285 285 282 272 275 272 271 272 268 272 259 247 242 234 236 231 231 236 226 218 215 215
166 166 171 174 168 167 169 124 147 156 231 318 331 333 324 316 320 319 303 282 269 266 286 288 284 278 272 274 269 266 262 263 259 244 242 238 240 236 235 237 226 213 210
161 172 178 181 184 183 180 179 169 119 277 309 294 298 302 303 291 283 275 277 283 283 271 264 263 272 278 279 279 281 276 270 271 265 259 247 243 241 237 238 233 216 205
165 177 176 181 184 186 201 225 244 267 269 287 305 307 306 301 294 290 287 288 285 283 283 273 278 280 280 274 270 273 278 282 277 274 274 272 261 249 243 236 231 224 204
171 181 180 186 190 198 204 249 300 317 300 273 276 284 283 291 298 296 286 277 285 281 272 278 281 286 288 290 289 284 281 274 273 276 277 273 270 263 254 246 237 228 220
174 179 185 189 195 206 208 229 248 258 268 281 292 286 276 286 293 297 292 274 272 267 277 284 288 293 296 297 298 298 297 289 283 275 274 272 272 268 266 258 246 234 221
175 188 187 190 201 208 220 235 246 254 264 267 276 287 297 301 295 291 292 267 264 273 285 292 297 297 300 300 299 298 295 291 288 286 281 275 273 272 265 267 261 248 232
185 181 190 195 206 218 225 244 261 268 279 296 300 303 301 294 288 276 269 266 273 285 284 284 290 295 296 300 302 302 299 295 289 283 277 273 273 274 269 262 263 254 235
186 190 196 193 210 217 230 249 265 288 295 303 302 300 297 281 270 271 272 275 282 281 283 289 290 292 296 301 304 307 314 314 306 298 291 285 277 267 267 266 260 249 234
193 196 197 199 200 221 231 264 293 300 305 292 300 301 282 277 274 274 277 277 280 285 292 290 290 292 297 302 312 322 327 321 322 323 318 311 300 288 268 258 251 245 231
196 200 197 195 199 216 242 283 308 304 290 286 280 274 276 276 276 277 278 279 279 285 288 287 287 291 301 313 332 335 337 331 336 339 336 314 289 260 236 233 229 225 222
202 191 190 202 196 209 240 274 295 303 280 277 286 293 289 287 280 278 270 273 278 274 277 277 277 294 318 329 333 340 348 352 358 1 359 342 350 329 273 230 202 215 208
191 181 192 202 213 219 240 276 299 293 289 288 299 298 300 299 286 269 271 265 271 273 277 275 294 324 327 331 335 351 4 9 19 26 28 37 54 56 98 171 158 146 136
186 191 200 208 209 229 242 238 302 310 297 306 308 310 277 276 261 266 267 262 273 276 278 283 310 320 332 332 337 349 357 359 9 24 45 52 73 79 110 136 130 124 118
178 191 205 210 217 237 238 225 287 302 301 300 294 295 289 276 271 285 266 268 272 270 271 282 289 299 320 315 336 332 339 1 30 57 72 66 70 88 95 111 130 129 118
189 199 207 221 225 250 217 231 276 296 298 302 301 271 274 278 282 275 249 256 267 267 260 267 277 276 278 282 285 277 302 334 112 113 95 86 73 77 95 100 114 122 121
201 215 225 234 244 249 249 231 260 279 286 299 308 280 272 266 268 263 245 248 263 270 264 264 270 276 282 254 291 275 234 215 170 127 134 109 94 85 80 91 103 104 112
220 228 233 241 247 250 250 260 254 261 268 291 298 286 265 267 256 250 241 237 254 261 261 258 262 273 269 265 229 227 219 216 170 145 134 126 128 124 120 119 122 128 136
225 234 240 246 245 249 260 265 277 269 271 293 295 294 274 262 254 242 233 245 251 255 258 253 257 262 270 257 232 227 231 201 167 163 156 150 147 146 144 143 133 128 127
236 240 245 248 254 255 259 266 268 281 269 277 286 293 276 263 256 246 243 245 252 257 258 256 255 262 250 253 244 230 220 199 176 163 153 155 156 154 157 151 146 147 154
237 243 245 250 255 255 258 259 256 262 273 269 273 277 284 254 254 248 245 246 248 252 257 255 256 260 259 246 235 224 206 188 175 170 165 160 162 167 169 160 152 158 157